Bloomington, IN

3:45 PM EST on January 21, 2018 (GMT -0500)
Monroe County

Weather History for KBMG - December, 2009

Change the Weather History Date:

Saturday, December 19, 2009

  Actual Average Record
Temperature  
Mean Temperature 32 °F 31 °F  
Max Temperature 34 °F 39 °F 58 °F (2008)
Min Temperature 29 °F 23 °F 1 °F (2016)
Degree Days  
Heating Degree Days 33 34  
Month to date heating degree days 635 598  
Since 1 July heating degree days 1665 1654  
Cooling Degree Days 0 0  
Month to date cooling degree days 0 0  
Year to date cooling degree days 739 927  
Moisture  
Dew Point 30 °F    
Average Humidity 87    
Maximum Humidity 96    
Minimum Humidity 78    
Precipitation  
Precipitation 0.07 in 0.10 in 0.89 in (2008)
Month to date precipitation 2.65 1.91  
Year to date precipitation 49.49 45.92  
Sea Level Pressure  
Sea Level Pressure 29.85 in    
Wind  
Wind Speed 5 mph (NW)    
Max Wind Speed 9 mph    
Max Gust Speed 15 mph    
Visibility 4 miles    
Events Snow    
T = Trace of Precipitation, MM = Missing Value Source: NWS Daily Summary

Daily Weather History Graph

Daily Weather History Graph

Search for Another Location

Airport or City:

Trip Planner

Search our weather history database for the weather conditions in past years. The results will help you decide how hot, cold, wet, or windy it might be!

Date:

Astronomy

Dec. 19, 2009 Rise Set
Actual Time 8:01 AM EST 5:26 PM EST
Civil Twilight 7:31 AM EST 5:56 PM EST
Nautical Twilight 6:57 AM EST 6:30 PM EST
Astronomical Twilight 6:24 AM EST 7:02 PM EST
Moon 10:14 AM EST (12/19) 8:30 PM EST (12/19)
Length of Visible Light 10h 25m
Length of Day
9h 24m
Waxing Crescent, 9% of the Moon is Illuminated
Dec 19
Waxing Crescent
Dec 24
First Quarter
Dec 31
Full
Jan 7
Last Quarter
Jan 15
New

Hourly Weather History & Observations

Time (EST) Temp. Windchill Dew Point Humidity Pressure Visibility Wind Dir Wind Speed Gust Speed Precip Events Conditions
12:53 AM 28.9 °F - 27.0 °F 92% 29.76 in 9.0 mi Calm Calm - N/A   Overcast
1:53 AM 32.0 °F - 27.0 °F 82% 29.74 in 10.0 mi Calm Calm - N/A   Mostly Cloudy
2:53 AM 30.0 °F 25.2 °F 25.0 °F 82% 29.74 in 10.0 mi North 4.6 mph - N/A   Overcast
3:53 AM 30.9 °F 25.2 °F 26.1 °F 82% 29.73 in 10.0 mi NNE 5.8 mph - N/A   Overcast
4:53 AM 32.0 °F - 26.1 °F 79% 29.74 in 10.0 mi Calm Calm - N/A   Overcast
5:53 AM 32.0 °F 28.7 °F 26.1 °F 79% 29.75 in 10.0 mi NNW 3.5 mph - N/A   Overcast
6:53 AM 32.0 °F 26.4 °F 27.0 °F 82% 29.78 in 10.0 mi North 5.8 mph - N/A   Overcast
7:33 AM 32.0 °F 26.4 °F 28.4 °F 87% 29.77 in 10.0 mi North 5.8 mph - N/A   Overcast
7:53 AM 32.0 °F 28.7 °F 28.0 °F 85% 29.80 in 9.0 mi North 3.5 mph - N/A   Overcast
8:05 AM 32.0 °F 27.5 °F 28.4 °F 87% 29.77 in 7.0 mi North 4.6 mph - N/A   Overcast
8:42 AM 32.0 °F - 28.4 °F 87% 29.78 in 5.0 mi Calm Calm - N/A   Overcast
9:43 AM 33.8 °F 28.6 °F 28.4 °F 81% 29.80 in 2.0 mi NW 5.8 mph - 0.00 in Snow Light Snow
9:53 AM 33.1 °F 28.7 °F 30.0 °F 89% 29.82 in 2.5 mi NNW 4.6 mph - 0.00 in Snow Light Snow
10:00 AM 33.8 °F 28.6 °F 30.2 °F 87% 29.80 in 3.0 mi NW 5.8 mph - 0.00 in   Overcast
10:30 AM 33.8 °F 27.7 °F 30.2 °F 87% 29.81 in 2.5 mi NNW 6.9 mph - 0.00 in Snow Light Snow
10:45 AM 33.8 °F 29.6 °F 30.2 °F 87% 29.81 in 1.2 mi NNW 4.6 mph - 0.00 in Snow Light Snow
10:53 AM 33.1 °F 26.9 °F 30.0 °F 89% 29.84 in 1.2 mi NNW 6.9 mph - 0.00 in Snow Light Snow
11:15 AM 33.8 °F 27.7 °F 30.2 °F 87% 29.82 in 2.0 mi NNW 6.9 mph - 0.00 in Snow Light Snow
11:48 AM 33.8 °F 28.6 °F 30.2 °F 87% 29.82 in 3.0 mi NNW 5.8 mph - 0.00 in   Overcast
11:53 AM 34.0 °F 28.0 °F 30.0 °F 85% 29.84 in 3.0 mi NNW 6.9 mph - 0.00 in   Overcast
12:29 PM 33.8 °F 27.7 °F 30.2 °F 87% 29.81 in 2.0 mi NW 6.9 mph - 0.00 in Snow Light Snow
12:36 PM 33.8 °F 27.7 °F 30.2 °F 87% 29.81 in 1.5 mi NW 6.9 mph - 0.00 in Snow Light Snow
12:53 PM 34.0 °F 28.8 °F 30.9 °F 89% 29.83 in 1.5 mi Variable 5.8 mph - 0.00 in Snow Light Snow
1:53 PM 34.0 °F 28.8 °F 30.9 °F 89% 29.83 in 1.0 mi WNW 5.8 mph - 0.01 in Snow Light Snow
2:53 PM 34.0 °F 29.8 °F 32.0 °F 92% 29.83 in 0.8 mi WNW 4.6 mph - 0.01 in Snow Light Snow
3:06 PM 33.8 °F 27.7 °F 32.0 °F 93% 29.81 in 1.2 mi NW 6.9 mph - 0.00 in Snow Light Snow
3:36 PM 33.8 °F 29.6 °F 32.0 °F 93% 29.83 in 2.0 mi WNW 4.6 mph - 0.00 in   Overcast
3:53 PM 34.0 °F 31.0 °F 32.0 °F 92% 29.85 in 2.5 mi Variable 3.5 mph - 0.00 in   Overcast
4:16 PM 33.8 °F 27.7 °F 30.2 °F 87% 29.84 in 1.5 mi WNW 6.9 mph - 0.00 in Snow Light Snow
4:53 PM 33.1 °F 26.9 °F 30.9 °F 92% 29.88 in 1.2 mi WNW 6.9 mph - 0.01 in Snow Light Snow
5:34 PM 33.8 °F 28.6 °F 30.2 °F 87% 29.87 in 1.5 mi WNW 5.8 mph - 0.01 in Snow Light Snow
5:53 PM 32.0 °F 26.4 °F 30.9 °F 96% 29.90 in 1.5 mi NW 5.8 mph - 0.01 in Snow Light Snow
6:07 PM 32.0 °F 25.6 °F 30.2 °F 93% 29.88 in 2.0 mi WNW 6.9 mph - 0.00 in Snow Light Snow
6:19 PM 32.0 °F 24.8 °F 30.2 °F 93% 29.89 in 4.0 mi NW 8.1 mph - 0.00 in   Overcast
6:53 PM 33.1 °F 27.7 °F 30.9 °F 92% 29.92 in 5.0 mi Variable 5.8 mph - 0.00 in   Overcast
7:32 PM 32.0 °F 24.8 °F 30.2 °F 93% 29.91 in 5.0 mi WNW 8.1 mph - 0.00 in   Overcast
7:53 PM 32.0 °F 26.4 °F 30.0 °F 92% 29.94 in 4.0 mi NW 5.8 mph - 0.00 in Snow Light Snow
8:12 PM 32.0 °F 24.8 °F 30.2 °F 93% 29.92 in 6.0 mi NW 8.1 mph - 0.00 in   Overcast
8:46 PM 32.0 °F 26.4 °F 30.2 °F 93% 29.92 in 2.0 mi NW 5.8 mph - 0.01 in Snow Light Snow
8:53 PM 32.0 °F 24.8 °F 30.0 °F 92% 29.95 in 2.0 mi WNW 8.1 mph - 0.01 in Snow Light Snow
9:53 PM 32.0 °F 26.4 °F 30.0 °F 92% 29.96 in 1.8 mi NW 5.8 mph - 0.01 in Snow Light Snow
10:15 PM 32.0 °F 24.8 °F 30.2 °F 93% 29.94 in 2.0 mi WNW 8.1 mph - 0.00 in Snow Light Snow
10:23 PM 32.0 °F 27.5 °F 30.2 °F 93% 29.95 in 1.2 mi WNW 4.6 mph - 0.00 in Snow Light Snow
10:41 PM 32.0 °F 24.8 °F 30.2 °F 93% 29.95 in 2.5 mi WNW 8.1 mph - 0.00 in Snow Light Snow
10:53 PM 32.0 °F 26.4 °F 30.0 °F 92% 29.98 in 2.5 mi Variable 5.8 mph - 0.01 in Snow Light Snow
11:00 PM 32.0 °F 25.6 °F 30.2 °F 93% 29.96 in 3.0 mi WNW 6.9 mph - 0.00 in   Overcast